Location: Chaves
(41.7330°N, 7.4670°W)
Time: 16:23:10
(UTC+00:00)

ISS - Pass Details

Date: 29 October 2019
Orbit: 412 x 421 km, 51.6° (Epoch: 22 November)

Event Time Altitude Azimuth Distance (km) Brightness Sun altitude
Exits shadow 05:29:22 39° 316° (NW) 652 -3.2 -17.0°
Maximum altitude 05:29:42 40° 332° (NNW) 638 -3.1 -17.0°
Drops below altitude 10° 05:32:55 10° 44° (NE) 1,508 -0.4 -16.4°
Sets 05:35:06 0° 52° (NE) 2,374 0.9 -16.0°
